www.pogodaiklimat.ru

Погода и климат >> Архив погоды >> Вьетнам >> Коншон


ПОГОДА в Коншоне

  • Прогноз погоды в Коншоне
  • Монитор погоды в Коншоне

АРХИВ ПОГОДЫ в Коншоне

Время (UTC), дата Ветер
(напр.,м/с)
 
Видим.   Явления Облачность Т
(С)
Тd
(С)
f
(%)
Тe
(С)
Тes
(С)
Комфортность P
(гПа)
Po
(гПа)
Тmin
(С)
Tmax
(С)
R
(мм)
R24
(мм)
S
(см)
21 10.06 штиль 0 20 км 9/5 300 м
[Cb cap Cs]
+28.9 +25.6 82 +43 +43 опасность
перегрева
1009.0 1007.9
00 11.06 З 2 20 км гроза без осадков {ливн. осадки} 10/10 300 м
[Cb cap]
+26.4 +25.5 95 +39 +39 очень
душно
1010.6 1009.5 +2.5 11
03 11.06 З 3 20 км в посл. час ливневой дождь 10/6 300 м
[Cb cap As op]
+27.2 +24.3 84 +38 +39 очень
душно
1011.9 1010.8
06 11.06 З 2 20 км {ливн. осадки} 10/4 300 м
[Cb cap As op]
+28.2 +24.1 78 +39 +41 очень
душно
1009.9 1008.8 15
09 11.06 З 2 20 км 9/9 300 м
[Cu Sc]
+29.4 +24.8 76 +42 +42 опасность
перегрева
1007.9 1006.8
12 11.06 штиль 0 20 км 9/6 <50 м
[Cu Sc Cs]
+27.9 1009.1 1008.0 +29.6 4 15
15 11.06 З 1 20 км 8/3 300 м
[Cb cap Cs]
+28.1 +25.1 84 +41 +41 опасность
перегрева
1010.9 1009.8
18 11.06 СВ 1 20 км 8/3 300 м
[Cu med, cong Cs]
+27.2 1009.5 1008.4
21 11.06 З 1 20 км 8/3 300 м
[Cu med, cong Cs]
+26.8 +25.3 92 +39 +39 очень
душно
1008.6 1007.5
00 12.06 Ю 2 20 км 8/4 300 м
[Cu med, cong Cs]
+29.4 1010.0 1008.9 +26.1
03 12.06 Ю 3 20 км 9/4 300 м
[Cu med, cong Cs]
+31.2 +25.5 72 +46 +53 опасность
перегрева
1010.6 1009.5
06 12.06 З 2 20 км 9/5
[Cu med, cong Cs]
+32.0 1009.4 1008.3
09 12.06 ЮЗ 2 20 км 9/5 300 м
[Cu med, cong Cs]
+31.4 +25.6 71 +46 +48 опасность
перегрева
1008.0 1006.9
12 12.06 З 3 20 км 9/9 300 м
[Cb cap]
+29.6 1009.5 1008.4 +32.5
15 12.06 З 2 10 км {ливн. осадки} 8/8 600 м
[Cb cap]
+27.8 +24.6 83 +39 +39 очень
душно
1010.6 1009.5
18 12.06 З 1 10 км {ливн. осадки} 8/8
[Cb cap]
+28.0 +24.5 81 +39 +39 очень
душно
1009.4 1008.3 0.2
21 12.06 ЮЗ 2 10 км 9/9 300 м
[Cu Sc]
+29.0 +25.3 80 +42 +42 опасность
перегрева
1008.5 1007.4
00 13.06 ЮЗ 2 20 км 9/3 300 м
[Cu med, cong Cs]
+29.8 1010.2 1009.1 +27.5 0.2
03 13.06 ЮЗ 2 20 км 9/3 300 м
[Cu med, cong Cs]
+31.7 +25.9 71 +47 +56 опасность
перегрева
1010.6 1009.5
06 13.06 Ю 3 20 км 9/3
[Cu med, cong Cs]
+32.4 1009.0 1007.9 0.2
09 13.06 ЮЗ 3 20 км 9/4 300 м
[Cb cap Cs]
+31.8 1008.0 1006.9
12 13.06 ЮЗ 3 20 км 9/4 300 м
[Cb cap Cs]
+30.0 1009.7 1008.6 +33.0 0.2
15 13.06 ЮЗ 4 20 км 9/5 300 м
[Cb cap Cs]
+30.2 +25.7 77 +45 +45 опасность
перегрева
1011.2 1010.1
18 13.06 З 2 20 км 9/4
[Cb cap Cs]
+29.7 1010.0 1008.9
21 13.06 З 2 20 км 8/8 300 м
[Cb cap]
+29.6 +24.4 74 +42 +42 опасность
перегрева
1008.2 1007.1
00 14.06 З 2 20 км 9/9 300 м
[Cb cap]
+30.2 1009.6 1008.5 +29.2
03 14.06 Ю 3 20 км 9/5 300 м
[Cu med, cong Cs]
+32.2 +25.1 66 +46 +52 опасность
перегрева
1010.9 1009.8
06 14.06 ЮЗ 2 20 км 9/6
[Cu med, cong Cs]
+32.2 1009.3 1008.2
09 14.06 СЗ 1 20 км {ливн. осадки} 9/3 300 м
[Cb cap Ac cuf Cs]
+28.8 +23.9 75 +40 +42 очень
душно
1007.7 1006.6
12 14.06 штиль 0 20 км {ливн. осадки} 9/3 600 м
[Cb cap Cs]
+28.6 +24.6 79 +41 +41 опасность
перегрева
1008.6 1007.5 +32.4 0.2 0.2
15 14.06 С 1 20 км 9/9 300 м
[Cu Sc]
+28.4 +25.8 86 +42 +42 опасность
перегрева
1010.7 1009.6
18 14.06 штиль 0 20 км 8/8 600 м
[Cu Sc]
+28.0 1009.7 1008.6
21 14.06 штиль 0 20 км 8/4 300 м
[Cu med, cong Cs]
+28.6 +25.7 84 +42 +42 опасность
перегрева
1008.3 1007.2
00 15.06 штиль 0 20 км 8/3 300 м
[Cu med, cong Cs]
+30.0 1008.4 1008.3 +27.8
03 15.06 З 3 20 км 9/4 300 м
[Cu med, cong Cs]
+29.5 +25.2 78 +43 +50 опасность
перегрева
1011.1 1010.0
06 15.06 З 2 20 км 9/3 300 м
[Cu med, cong Cs]
+31.5 1009.4 1008.3
09 15.06 З 4 20 км 8/3 300 м
[Cu med, cong Cs]
+31.8 +25.6 70 +47 +49 опасность
перегрева
1008.2 1007.1
12 15.06 С 2 20 км {ливн. осадки} 9/9 300 м
[Cb cap]
+27.8 +26.4 92 +42 +42 опасность
перегрева
1009.3 1008.2 +3.2 0.8 0.8
15 15.06 З 1 20 км 8/8 300 м
[Cu Sc]
+28.5 +26.1 87 +43 +43 опасность
перегрева
1010.1 1009.0
18 15.06 З 1 20 км 9/6
[Cu Sc Cs]
+28.4 1009.6 1008.5
21 15.06 ЮЗ 2 20 км 9/6 300 м
[Cu Sc Cs]
+28.4 +25.5 84 +42 +42 опасность
перегрева
1008.5 1007.4
00 16.06 З 3 20 км 9/9 300 м
[Cu Sc]
+29.8 1009.5 1008.4 +27.4
03 16.06 З 2 20 км 9/9 300 м
[Cu Sc]
+30.8 +26.3 77 +47 +48 опасность
перегрева
1010.5 1009.4
06 16.06 С 2 18 км слаб. ливневой дождь, в посл. час гроза 9/9 300 м
[Cb cap]
+28.4 +23.7 76 +39 +41 очень
душно
1009.0 1007.9 0.5
09 16.06 Ю 2 18 км гроза, ливневой дождь 10/4 300 м
[Cb cap As op]
+26.6 +25.7 95 +39 +40 очень
душно
1008.5 1007.4
12 16.06 З 2 10 км слаб. дождь {гроза} 10/4 300 м
[Cb cap As op]
+24.9 +24.4 97 +35 +35 очень
душно
1009.7 1008.6 +32.0 30 30
15 16.06 штиль 0 10 км {дождь} 10/3 300 м
[Cb cap As op]
+26.0 +24.5 91 +36 +36 очень
душно
1010.2 1009.1
18 16.06 штиль 0 10 км {дождь} 10/3
[Cu med, cong As op]
+26.2 +24.1 88 +36 +36 очень
душно
1009.6 1008.5 3
21 16.06 З 2 10 км 9/3 300 м
[Cb cap As trans]
+28.0 +25.7 87 +41 +41 опасность
перегрева
1008.6 1007.5
00 17.06 Ю 2 20 км 9/9 300 м
[Cb cap]
+29.8 1010.2 1009.1 +24.7 3
03 17.06 З 3 18 км слаб. ливневой дождь 10/4 300 м
[Cb cap As op]
+26.0 +24.2 90 +36 +38 очень
душно
1011.8 1010.7
06 17.06 З 1 20 км {ливн. осадки} 9/9 300 м
[Cu Sc]
+28.3 +23.5 75 +38 +41 очень
душно
1009.8 1008.7 11
09 17.06 З 2 20 км 9/9 300 м
[Cu Sc]
+29.4 +23.0 68 +39 +40 очень
душно
1008.3 1007.2
12 17.06 З 1 20 км 9/9 300 м
[Cu Sc]
+28.2 1009.9 1008.8 +30.4 8 11
15 17.06 штиль 0 20 км 9/6 300 м
[Cu Sc Cs]
+27.3 +25.1 88 +39 +39 очень
душно
1010.8 1009.7
18 17.06 З 4 10 км слаб. дождь 10/3
[Cb cap As op]
+25.4 +23.9 91 +35 +35 очень
душно
1011.4 1010.3 11

 

Местоположение метеостанции Коншон (Вьетнам): широта 8.68 долгота 106.60 высота над уровнем моря 9 м.

В архиве по умолчанию представлена погода в Коншоне за последнюю неделю. Архивные данные за месяц целиком и за предыдущие месяцы, начиная с января 2011 года, Вы можете получить, выбрав интересующий диапазон дат из раскрывающегося списка и нажав кнопку "Ввод!".


*Определитесь, кто Вы:
робот инопланетянин человек

Внимание! Время в таблицах - всемирное. Для получения местного времени необходимо прибавить поправку, которая равна 7 ч.

Смотрите также архив погоды в соседних городах и на ближайших метеорологических станциях:

Погода в Камау (Вьетнам) (169 км)
Погода в Хабе (Вьетнам) (220 км)
Погода в Ратьзя (Вьетнам) (222 км)
Погода в Фантхьете (Вьетнам) (299 км)
Погода на Фукуоке (Вьетнам) (337 км)
Погода на Тхочу (Вьетнам) (351 км)
Погода в Хуентране (Вьетнам) (434 км)
Погода в Мерсинге (Малайзия) (472 км)
Погода в Буонметхуоте (Вьетнам) (473 км)
Погода в Нячанге (Вьетнам) (486 км)

Пояснения к столбцам:

Ветер - указаны скорость ветра в м/с - средняя за 10 мин, порывы в срок и между сроками (в фигурных скобках) и направление, откуда дует ветер: С - северный, СВ - северо-восточный, В - восточный, ЮВ - юго-восточный, Ю - южный, ЮЗ - юго-западный, З - западный, СЗ - северо-западный.
Видимость - горизонтальная дальность видимости в метрах или километрах. При видимости от 1 до 10 км при отсутствии осадков обычно наблюдается дымка, при ухудшении видимости до 1 км и менее - туман. В сухую погоду видимость может ухудшаться дымом, пылью или мглою.
Явления - указаны атмосферные явления, наблюдавшиеся в срок или в последний час перед сроком; фигурными скобками обозначены явления, наблюдавшиеся между сроками (за 1-3 часа до срока); квадратными скобками обозначены град или гололедные отложения с указанием их диаметра в мм.
Облачность - указаны через наклонную черту общая и нижняя облачность в баллах и высота нижней границы облаков в метрах; квадратными скобками обозначены формы облаков: Ci - перистые, Cs - перисто-слоистые, Cc - перисто-кучевые, Ac - высококучевые, As - высокослоистые, Sc - слоисто-кучевые, Ns - слоисто-дождевые, Cu - кучевые, Cb - кучево-дождевые. Подробнее классификацию облаков см. в Атласе облаков (PDF).
T - Температура воздуха - температура, измеренная на высоте 2 м над землей.
Td - Температура точки росы - температура, при понижении до которой содержащийся в воздухе водяной пар достигнет насыщения.
f - Относительная влажность воздуха - влажноcть воздуха, измеренная на высоте 2 м над землей.
Te - Эффективная температура - температура, которую ощущает одетый по сезону человек в тени. Характеристика душности погоды. При расчете учитывается влияние влажности воздуха и скорости ветра на теплоощущения человека.
Tes - Эффективная температура на солнце - температура, которую ощущает человек, с поправкой на солнечный нагрев. Характеристика знойности погоды. Зависит от высоты солнца над горизонтом, облачности и скорости ветра. Ночью, в пасмурную погоду, а также при ветре 12 м/с и более поправка равна нулю.
P - Атмосферное давление - приведенное к уровню моря атмосферное давление.
Po - Атмосферное давление - измеренное на уровне метеостанции атмосферное давление.
Tmin - Минимальная температура - минимум температуры воздуха на высоте 2 м над землей.
Tmax - Максимальная температура - максимум температуры воздуха на высоте 2 м над землей.
R - Количество осадков - Количество выпавших осадков за период времени, мм. При наведении курсора мыши на число - период времени, за который выпало указанное количество осадков.
R24 - Количество осадков - Количество выпавших осадков за 24 часа, мм.
S - Снежный покров - Высота снежного покрова, см. При наведении курсора мыши на число - состояние снежного покрова и степень покрытия местности в баллах.